FW1574 Weather Reports


time (UTC)temp
C
wind
direction
speed
KPH
gust
KPH
rain 1hr
cm
rain 24hr
cm
rain mn
cm
humidity
%
barometer
mb
20260906122035 22 65 0.0 1.6 0.00 0.00 0.00 92 1011.8
20260906121534 22 65 0.0 1.6 0.00 0.00 0.00 92 1011.8
20260906121033 22 65 0.0 1.6 0.00 0.00 0.00 92 1011.8
20260906120533 22 65 0.0 0.0 0.00 0.00 0.00 92 1011.7
20260906120036 22 65 0.0 0.0 0.00 0.00 0.00 92 1011.5
20260906115536 22 65 0.0 1.6 0.00 0.00 0.00 92 1011.5
20260906115033 22 65 0.0 1.6 0.00 0.00 0.00 92 1011.5
20260906114537 22 65 0.0 1.6 0.00 0.00 0.00 92 1011.5
20260906114032 22 65 0.0 1.6 0.00 0.00 0.00 92 1011.4
20260906113532 22 65 0.0 1.6 0.00 0.00 0.00 91 1011.3
20260906113032 22 65 0.0 0.0 0.00 0.00 0.00 91 1011.3
20260906112532 22 65 0.0 0.0 0.00 0.00 0.00 91 1011.2
20260906112032 22 65 0.0 0.0 0.00 0.00 0.00 91 1011.1
20260906111533 22 65 0.0 0.0 0.00 0.00 0.00 91 1011.0
20260906111031 22 65 0.0 0.0 0.00 0.00 0.00 91 1011.0
20260906110531 22 65 0.0 0.0 0.00 0.00 0.00 91 1010.9
20260906110040 22 65 0.0 0.0 0.00 0.00 0.00 91 1010.7
20260906105530 22 65 0.0 0.0 0.00 0.00 0.00 91 1010.7
20260906105031 23 65 0.0 0.0 0.00 0.00 0.00 91 1010.6
20260906104530 23 65 0.0 0.0 0.00 0.00 0.00 91 1010.7
20260906104030 23 65 0.0 0.0 0.00 0.00 0.00 91 1010.7
20260906103531 23 65 0.0 0.0 0.00 0.00 0.00 92 1010.7
20260906103030 23 65 0.0 0.0 0.00 0.00 0.00 92 1010.7
20260906102529 23 65 0.0 0.0 0.00 0.00 0.00 92 1010.8
20260906102030 23 65 0.0 3.2 0.00 0.00 0.00 92 1010.8
20260906101529 22 65 0.0 3.2 0.00 0.00 0.00 92 1010.9
20260906101028 23 65 0.0 1.6 0.00 0.00 0.00 92 1010.9
20260906100528 23 65 0.0 0.0 0.00 0.00 0.00 92 1010.8
20260906100027 23 65 0.0 0.0 0.00 0.00 0.00 92 1010.8
20260906095529 23 65 0.0 0.0 0.00 0.00 0.00 92 1010.8
20260906095027 23 65 0.0 0.0 0.00 0.00 0.00 92 1010.8
20260906094537 23 65 0.0 0.0 0.00 0.00 0.00 92 1010.7
20260906094026 23 65 0.0 1.6 0.00 0.00 0.00 92 1010.8
20260906093526 23 65 0.0 1.6 0.00 0.00 0.00 92 1010.8
20260906093031 23 65 0.0 0.0 0.00 0.00 0.00 92 1010.7
20260906092526 23 65 0.0 0.0 0.00 0.00 0.00 92 1010.6
20260906092028 23 65 0.0 0.0 0.00 0.00 0.00 92 1010.6
20260906091525 23 65 0.0 0.0 0.00 0.00 0.00 92 1010.8
20260906091024 23 65 0.0 1.6 0.00 0.00 0.00 92 1010.9
20260906090526 23 65 0.0 1.6 0.00 0.00 0.00 92 1011.1
20260906090026 23 65 0.0 3.2 0.00 0.00 0.00 92 1011.0
20260906085525 23 65 0.0 3.2 0.00 0.00 0.00 92 1011.1
20260906085023 23 65 0.0 1.6 0.00 0.00 0.00 92 1011.2
20260906084533 23 65 0.0 1.6 0.00 0.00 0.00 92 1011.4
20260906084023 23 65 0.0 1.6 0.00 0.00 0.00 92 1011.3
20260906083526 23 65 0.0 1.6 0.00 0.00 0.00 92 1011.4
20260906083023 23 65 0.0 3.2 0.00 0.00 0.00 92 1011.5
20260906082522 23 65 0.0 3.2 0.00 0.00 0.00 92 1011.4
20260906082027 23 63 0.0 1.6 0.00 0.00 0.00 92 1011.5
20260906081539 23 63 0.0 1.6 0.00 0.00 0.00 92 1011.5
20260906081022 23 63 0.0 1.6 0.00 0.00 0.00 92 1011.4
20260906080525 23 63 0.0 1.6 0.00 0.00 0.00 92 1011.5
20260906080022 23 63 0.0 0.0 0.00 0.00 0.00 92 1011.4
20260906075521 23 63 0.0 0.0 0.00 0.00 0.00 92 1011.2
20260906075024 23 63 0.0 1.6 0.00 0.00 0.00 93 1011.2
20260906074521 23 63 0.0 1.6 0.00 0.00 0.00 93 1011.1
20260906074020 23 63 0.0 0.0 0.00 0.00 0.00 93 1011.1
20260906073521 23 63 0.0 1.6 0.00 0.00 0.00 93 1010.9
20260906073020 23 63 0.0 3.2 0.00 0.00 0.00 93 1010.9
20260906072519 23 108 1.6 3.2 0.00 0.00 0.00 94 1010.7
20260906072018 23 97 0.0 3.2 0.00 0.00 0.00 94 1010.8
20260906071518 22 104 1.6 3.2 0.00 0.00 0.00 94 1010.7
20260906071018 22 227 0.0 3.2 0.00 0.00 0.00 94 1010.9
20260906070524 22 286 0.0 4.8 0.00 0.00 0.00 94 1011.1
20260906070018 22 293 0.0 3.2 0.00 0.00 0.00 94 1011.1
20260906065517 22 78 0.0 0.0 0.00 0.00 0.00 93 1010.7
20260906065017 22 78 0.0 0.0 0.00 0.00 0.00 93 1010.7
20260906064515 22 78 0.0 1.6 0.00 0.00 0.00 93 1010.9
20260906064014 22 78 0.0 1.6 0.00 0.00 0.00 93 1011.1
20260906063514 22 61 0.0 1.6 0.00 0.00 0.00 93 1011.3
20260906063015 22 59 0.0 3.2 0.00 0.00 0.00 93 1011.3
20260906062518 22 111 0.0 3.2 0.00 0.00 0.00 93 1011.3
20260906062014 22 78 0.0 1.6 0.00 0.00 0.00 93 1011.2
20260906061516 22 78 0.0 1.6 0.00 0.00 0.00 93 1011.3
20260906061013 22 78 0.0 0.0 0.00 0.00 0.00 93 1011.3
20260906060513 22 78 0.0 0.0 0.00 0.00 0.00 93 1011.2
20260906060013 22 78 0.0 0.0 0.00 0.00 0.00 93 1011.1
20260906055514 22 78 0.0 0.0 0.00 0.00 0.00 93 1011.1
20260906055013 22 78 0.0 1.6 0.00 0.00 0.00 92 1011.1
20260906054512 22 78 0.0 1.6 0.00 0.00 0.00 92 1011.1
20260906054012 22 78 0.0 3.2 0.00 0.00 0.00 92 1011.1
20260906053511 22 78 0.0 3.2 0.00 0.00 0.00 92 1011.1
20260906053016 22 36 0.0 0.0 0.00 0.00 0.00 92 1011.0
20260906052511 22 36 0.0 0.0 0.00 0.00 0.00 91 1011.0
20260906052011 22 36 0.0 0.0 0.00 0.00 0.00 91 1011.1
20260906051510 22 36 0.0 0.0 0.00 0.00 0.00 91 1011.1
20260906051010 22 36 0.0 0.0 0.00 0.00 0.00 91 1011.1
20260906050509 22 36 0.0 0.0 0.00 0.00 0.00 91 1011.1
20260906050009 22 36 0.0 0.0 0.00 0.00 0.00 91 1011.3
20260906045509 22 36 0.0 0.0 0.00 0.00 0.00 91 1011.2
20260906045007 22 36 0.0 0.0 0.00 0.00 0.00 91 1011.2
20260906044506 22 36 0.0 1.6 0.00 0.00 0.00 91 1011.3
20260906044007 22 36 0.0 1.6 0.00 0.00 0.00 91 1011.5
20260906043509 22 36 0.0 1.6 0.00 0.00 0.00 91 1011.5
20260906043005 22 36 0.0 0.0 0.00 0.00 0.00 91 1011.5
20260906042503 22 36 0.0 0.0 0.00 0.00 0.00 91 1011.5
20260906042003 22 36 0.0 0.0 0.00 0.00 0.00 90 1011.8
20260906041502 22 36 0.0 0.0 0.00 0.00 0.00 90 1011.7
20260906041002 22 36 0.0 0.0 0.00 0.00 0.00 90 1011.7
20260906040501 22 36 0.0 0.0 0.00 0.00 0.00 90 1011.7
20260906040004 22 36 0.0 0.0 0.00 0.00 0.00 90 1011.7
20260906035500 22 36 0.0 0.0 0.00 0.00 0.00 90 1011.4
20260906035104 23 36 0.0 0.0 0.00 0.00 0.00 89 1011.5
20260906034605 23 36 0.0 0.0 0.00 0.00 0.00 90 1011.5
20260906034101 23 36 0.0 0.0 0.00 0.00 0.00 90 1011.5
20260906033600 23 36 0.0 1.6 0.00 0.00 0.00 90 1011.6
20260906033100 23 36 0.0 1.6 0.00 0.00 0.00 90 1011.5
20260906032559 23 36 0.0 0.0 0.00 0.00 0.00 90 1011.6
20260906032100 23 36 0.0 1.6 0.00 0.00 0.00 90 1011.7
20260906031603 23 36 0.0 1.6 0.00 0.00 0.00 91 1011.6
20260906031102 23 36 0.0 1.6 0.00 0.00 0.00 92 1011.7
20260906030559 23 36 0.0 1.6 0.00 0.00 0.00 92 1011.7
20260906030059 23 36 0.0 1.6 0.00 0.00 0.00 91 1011.8
20260906025559 23 36 0.0 1.6 0.00 0.00 0.00 90 1011.8
20260906025059 23 36 0.0 1.6 0.00 0.00 0.00 90 1011.5
20260906024602 23 36 0.0 0.0 0.00 0.00 0.00 89 1011.2
20260906024058 23 36 0.0 0.0 0.00 0.00 0.00 90 1011.2
20260906023559 23 36 0.0 0.0 0.00 0.00 0.00 90 1010.9
20260906023058 23 36 0.0 0.0 0.00 0.00 0.00 89 1010.9
20260906022600 23 36 0.0 0.0 0.00 0.00 0.00 89 1010.9
20260906022100 23 36 0.0 0.0 0.00 0.00 0.00 89 1010.9
20260906021605 23 36 0.0 0.0 0.00 0.00 0.00 90 1010.9
20260906021058 23 36 0.0 0.0 0.00 0.00 0.00 90 1010.9
20260906020557 23 36 0.0 0.0 0.00 0.00 0.00 90 1010.8
20260906015557 23 36 0.0 0.0 0.00 0.00 0.00 89 1010.7
20260906015057 24 36 0.0 0.0 0.00 0.00 0.00 89 1010.7
20260906014600 24 36 0.0 0.0 0.00 0.00 0.00 89 1010.6
20260906014059 24 36 0.0 0.0 0.00 0.00 0.00 88 1010.7
20260906013556 24 36 0.0 0.0 0.00 0.00 0.00 88 1010.6
20260906013056 24 36 0.0 0.0 0.00 0.00 0.00 88 1010.5
20260906012559 25 36 0.0 0.0 0.00 0.00 0.00 88 1010.5
20260906012055 25 36 0.0 0.0 0.00 0.00 0.00 87 1010.4
20260906011558 25 36 0.0 0.0 0.00 0.00 0.00 87 1010.4
20260906011058 25 36 0.0 0.0 0.00 0.00 0.00 87 1010.5
20260906010554 25 36 0.0 0.0 0.00 0.00 0.00 87 1010.5
20260906010105 25 36 0.0 0.0 0.00 0.00 0.00 87 1010.3
20260906005554 25 36 0.0 1.6 0.00 0.00 0.00 86 1010.2
20260906005054 25 36 0.0 1.6 0.00 0.00 0.00 86 1010.2
20260906004557 25 36 0.0 0.0 0.00 0.00 0.00 87 1010.3
20260906004054 25 36 0.0 1.6 0.00 0.00 0.00 86 1010.2
20260906003554 25 36 0.0 1.6 0.00 0.00 0.00 85 1010.2
20260906003054 25 5 0.0 0.0 0.00 0.00 0.00 84 1010.1
20260906002553 26 5 0.0 0.0 0.00 0.00 0.00 83 1010.0
20260906002054 26 5 0.0 0.0 0.00 0.00 0.00 83 1010.1
20260906001605 26 5 0.0 0.0 0.00 0.00 0.00 83 1010.2
20260906001052 26 5 0.0 0.0 0.00 0.00 0.00 82 1009.9
20260906000556 26 5 0.0 0.0 0.00 0.00 0.00 81 1010.1
20260906000053 26 5 0.0 0.0 0.00 0.00 0.00 81 1010.2
20260905235552 26 5 0.0 1.6 0.00 0.00 0.00 80 1010.3
20260905235052 26 5 0.0 1.6 0.00 0.00 0.00 80 1010.2
20260905234552 26 5 0.0 1.6 0.00 0.00 0.00 79 1010.2
20260905234051 27 5 0.0 0.0 0.00 0.00 0.00 79 1010.3
20260905233552 27 5 0.0 0.0 0.00 0.00 0.00 78 1010.3
20260905233100 27 5 0.0 1.6 0.00 0.00 0.00 78 1010.2
20260905232551 27 5 0.0 1.6 0.00 0.00 0.00 78 1010.1
20260905232051 27 5 0.0 1.6 0.00 0.00 0.00 77 1010.0
20260905231552 27 5 0.0 1.6 0.00 0.00 0.00 78 1009.9
20260905231052 27 5 0.0 1.6 0.00 0.00 0.00 78 1009.9
20260905230551 27 5 0.0 0.0 0.00 0.00 0.00 77 1009.8
20260905230053 27 5 0.0 1.6 0.00 0.00 0.00 77 1009.9
20260905225551 27 5 0.0 1.6 0.00 0.00 0.00 77 1010.0
20260905225048 27 5 0.0 3.2 0.00 0.00 0.00 77 1009.8
20260905224558 28 5 0.0 3.2 0.00 0.00 0.00 76 1009.7
20260905224047 28 94 1.6 3.2 0.00 0.00 0.00 71 1009.7
20260905223547 27 190 0.0 0.0 0.00 0.00 0.00 75 1009.9
20260905223047 27 190 0.0 0.0 0.00 0.00 0.00 75 1010.0
20260905222546 27 190 0.0 0.0 0.00 0.00 0.00 75 1010.0
20260905222044 27 190 0.0 0.0 0.00 0.00 0.00 74 1010.2
20260905221548 27 190 0.0 1.6 0.00 0.00 0.00 72 1010.3
20260905221044 27 190 0.0 3.2 0.00 0.00 0.00 73 1010.3
20260905220547 27 190 0.0 3.2 0.00 0.00 0.00 73 1010.2
20260905220043 27 190 0.0 3.2 0.00 0.00 0.00 73 1010.4
20260905215543 28 190 0.0 3.2 0.00 0.00 0.00 73 1010.5
20260905215043 28 190 0.0 3.2 0.00 0.00 0.00 73 1010.5
20260905214543 28 190 0.0 3.2 0.00 0.00 0.00 70 1010.6
20260905214043 28 9 0.0 3.2 0.00 0.00 0.00 69 1010.5
20260905213543 28 9 0.0 3.2 0.00 0.00 0.00 70 1010.7
20260905213042 28 5 0.0 4.8 0.00 0.00 0.00 70 1010.6
20260905212542 28 136 1.6 4.8 0.00 0.00 0.00 68 1010.4
20260905212043 28 110 1.6 4.8 0.00 0.00 0.00 68 1010.6
20260905211546 28 5 1.6 4.8 0.00 0.00 0.00 70 1010.7
20260905211041 28 5 0.0 4.8 0.00 0.00 0.00 71 1010.8
20260905210543 28 109 0.0 1.6 0.00 0.00 0.00 73 1010.9
20260905210057 28 326 0.0 1.6 0.00 0.00 0.00 72 1010.6
20260905205541 28 326 0.0 1.6 0.00 0.00 0.00 72 1010.7
20260905205041 28 138 0.0 0.0 0.00 0.00 0.00 71 1010.9
20260905204541 28 5 0.0 1.6 0.00 0.00 0.00 72 1010.9
20260905204044 27 210 0.0 1.6 0.00 0.00 0.00 73 1011.0
20260905203544 27 333 0.0 0.0 0.00 0.00 0.00 72 1010.8
20260905203042 27 78 0.0 0.0 0.00 0.00 0.00 71 1011.0
20260905202541 27 348 0.0 3.2 0.00 0.00 0.00 72 1011.0
20260905202040 27 349 0.0 3.2 0.00 0.00 0.00 70 1011.1
20260905201540 27 9 0.0 3.2 0.00 0.00 0.00 69 1011.1
20260905201039 28 37 0.0 1.6 0.00 0.00 0.00 69 1011.0
20260905200539 28 9 0.0 6.4 0.00 0.00 0.00 68 1010.7
20260905200052 29 13 0.0 11.3 0.00 0.00 0.00 66 1010.9
20260905195540 30 345 1.6 11.3 0.00 0.00 0.00 61 1010.8
20260905195039 31 5 1.6 8.0 0.00 0.00 0.00 61 1010.9
20260905194539 33 46 1.6 11.3 0.00 0.00 0.00 58 1010.7
20260905194039 35 347 0.0 0.0 0.00 0.00 0.00 49 1010.7
20260905193538 35 28 0.0 0.0 0.00 0.00 0.00 48 1010.3
20260905193039 35 13 0.0 0.0 0.00 0.00 0.00 52 1010.4
20260905192538 35 80 0.0 0.0 0.00 0.00 0.00 50 1010.5
20260905192040 35 17 0.0 0.0 0.00 0.00 0.00 53 1010.4
20260905191541 35 34 0.0 0.0 0.00 0.00 0.00 51 1010.4
20260905191037 35 48 0.0 0.0 0.00 0.00 0.00 49 1010.3
20260905190536 35 347 0.0 0.0 0.00 0.00 0.00 50 1010.4
20260905190036 35 250 0.0 0.0 0.00 0.00 0.00 50 1010.5
20260905185539 35 69 0.0 0.0 0.00 0.00 0.00 52 1010.6
20260905185037 35 345 0.0 0.0 0.00 0.00 0.00 53 1010.7
20260905184537 35 246 0.0 0.0 0.00 0.00 0.00 55 1010.8
20260905184034 34 101 0.0 0.0 0.00 0.00 0.00 56 1010.7
20260905183535 34 175 0.0 0.0 0.00 0.00 0.00 56 1010.7
20260905183033 35 295 0.0 0.0 0.00 0.00 0.00 53 1010.7
20260905182533 35 316 0.0 0.0 0.00 0.00 0.00 53 1010.7
20260905182033 35 11 0.0 0.0 0.00 0.00 0.00 52 1010.8
20260905181532 35 284 0.0 0.0 0.00 0.00 0.00 55 1010.9
20260905181030 35 305 0.0 0.0 0.00 0.00 0.00 55 1011.1
20260905180529 34 134 0.0 0.0 0.00 0.00 0.00 53 1011.1
20260905180033 34 76 0.0 0.0 0.00 0.00 0.00 57 1011.1
20260905175528 33 10 0.0 0.0 0.00 0.00 0.00 62 1011.2
20260905175027 33 10 0.0 0.0 0.00 0.00 0.00 61 1011.2
20260905174527 33 10 0.0 0.0 0.00 0.00 0.00 62 1011.3
20260905174031 33 10 0.0 0.0 0.00 0.00 0.00 59 1011.3
20260905173526 33 147 0.0 0.0 0.00 0.00 0.00 60 1011.3
20260905173025 34 147 0.0 0.0 0.00 0.00 0.00 56 1011.4
20260905172524 35 304 0.0 0.0 0.00 0.00 0.00 56 1011.5
20260905172023 34 82 0.0 0.0 0.00 0.00 0.00 57 1011.6
20260905171537 34 96 0.0 0.0 0.00 0.00 0.00 58 1011.6
20260905171021 34 59 0.0 0.0 0.00 0.00 0.00 58 1011.7
20260905170521 34 5 0.0 0.0 0.00 0.00 0.00 59 1011.7
20260905170027 33 328 0.0 0.0 0.00 0.00 0.00 60 1011.8
20260905165520 33 98 0.0 0.0 0.00 0.00 0.00 60 1011.8
20260905165018 33 344 0.0 0.0 0.00 0.00 0.00 60 1011.9
20260905164517 33 321 0.0 0.0 0.00 0.00 0.00 61 1011.9
20260905164017 33 108 0.0 0.0 0.00 0.00 0.00 62 1012.1
20260905163516 33 360 0.0 0.0 0.00 0.00 0.00 62 1012.2
20260905163019 33 360 0.0 0.0 0.00 0.00 0.00 60 1012.2
20260905162515 33 55 0.0 0.0 0.00 0.00 0.00 62 1012.3
20260905162017 32 100 0.0 0.0 0.00 0.00 0.00 63 1012.3
20260905161519 32 67 0.0 0.0 0.00 0.00 0.00 65 1012.3
20260905161013 32 330 0.0 0.0 0.00 0.00 0.00 66 1012.3
20260905160511 32 88 0.0 0.0 0.00 0.00 0.00 65 1012.4
20260905160024 32 53 0.0 0.0 0.00 0.00 0.00 67 1012.5
20260905155509 32 49 0.0 0.0 0.00 0.00 0.00 68 1012.5
20260905155007 31 5 0.0 0.0 0.00 0.00 0.00 68 1012.6
20260905154507 31 48 0.0 0.0 0.00 0.00 0.00 68 1012.6
20260905154007 31 51 0.0 0.0 0.00 0.00 0.00 69 1012.7
20260905153510 31 307 0.0 0.0 0.00 0.00 0.00 70 1012.8
20260905153007 31 347 0.0 0.0 0.00 0.00 0.00 72 1012.8
20260905152504 31 113 0.0 0.0 0.00 0.00 0.00 71 1012.8
20260905152004 30 86 0.0 0.0 0.00 0.00 0.00 72 1012.8
20260905151502 30 310 0.0 0.0 0.00 0.00 0.00 76 1012.9
20260905151100 30 310 0.0 0.0 0.00 0.00 0.00 74 1012.9
20260905150559 29 347 0.0 0.0 0.00 0.00 0.00 75 1013.0
20260905150059 29 327 0.0 0.0 0.00 0.00 0.00 75 1013.0
20260905145558 29 327 0.0 0.0 0.00 0.00 0.00 76 1013.0
20260905145056 29 258 0.0 0.0 0.00 0.00 0.00 76 1013.0
20260905144557 28 243 0.0 0.0 0.00 0.00 0.00 77 1013.1
20260905144056 28 336 0.0 0.0 0.00 0.00 0.00 78 1013.1
20260905143554 28 336 0.0 0.0 0.00 0.00 0.00 79 1013.2
20260905143054 28 314 0.0 0.0 0.00 0.00 0.00 79 1013.2
20260905142554 28 78 0.0 0.0 0.00 0.00 0.00 80 1013.2
20260905142051 28 78 0.0 0.0 0.00 0.00 0.00 80 1013.2
20260905141550 27 78 0.0 0.0 0.00 0.00 0.00 81 1013.2
20260905141048 27 78 0.0 0.0 0.00 0.00 0.00 82 1013.2
20260905140549 27 78 0.0 0.0 0.00 0.00 0.00 83 1013.2
20260905140045 27 78 0.0 0.0 0.00 0.00 0.00 85 1013.3
20260905135549 27 78 0.0 0.0 0.00 0.00 0.00 87 1013.4
20260905135045 26 78 0.0 0.0 0.00 0.00 0.00 86 1013.4
20260905134550 26 78 0.0 0.0 0.00 0.00 0.00 87 1013.4
20260905134044 26 78 0.0 0.0 0.00 0.00 0.00 91 1013.4
20260905133540 25 79 0.0 0.0 0.00 0.00 0.00 95 1013.5
20260905133040 24 79 0.0 0.0 0.00 0.00 0.00 96 1013.5
20260905132540 24 76 0.0 0.0 0.00 0.00 0.00 96 1013.6
20260905132040 24 66 0.0 0.0 0.00 0.00 0.00 96 1013.7
20260905131542 24 66 0.0 0.0 0.00 0.00 0.00 96 1013.7
20260905131039 23 66 0.0 0.0 0.00 0.00 0.00 96 1013.8
20260905130540 23 66 0.0 0.0 0.00 0.00 0.00 96 1013.8
20260905130038 23 66 0.0 0.0 0.00 0.00 0.00 96 1013.7
20260905125538 23 66 0.0 0.0 0.00 0.00 0.00 96 1013.7
20260905125038 23 66 0.0 0.0 0.00 0.00 0.00 96 1013.7
20260905124546 23 66 0.0 0.0 0.00 0.00 0.00 96 1013.6
20260905124037 23 66 0.0 0.0 0.00 0.00 0.00 96 1013.6
20260905123537 23 66 0.0 0.0 0.00 0.00 0.00 96 1013.6
20260905123037 22 66 0.0 0.0 0.00 0.00 0.00 96 1013.6
20260905122540 22 66 0.0 0.0 0.00 0.00 0.00 96 1013.5